Weather in Rabac

Croatia     45°04′37″N   14°09′47″E
temp.,
°C
wind,
m/s
gust,
m/s
humid.,
%
clouds,
%
prec.,
mm/h
press.,
hPa
HPBL,
m
22 october, fri
fri2223:00+17s111486100 0.4 1015749
02:00+18sse101283100 1.8 1014465
05:00+16s7991100 1.9 1014472
08:00+17sse4686100 3.7 1015211
11:00+18s71080100 2.5 1016326
14:00+16s6887100 3.9 1016610
17:00+16s338695 0.9 1016442
20:00+16s2284100 1.2 1018235
23 october, sat
sat2323:00+16ene118397 0.1 1019142
02:00+16nne228483 0.2 1019152
05:00+16nne4481100 0.1 1019196
08:00+15nne5577100 0.1 1020221
11:00+16ne567236 0.0 1022364
14:00+17ene78695 0.0 1022572
17:00+15ne88661 0.0 1022538
20:00+12ne89710 0.0 1024455
24 october, sun
sun2423:00+12ne78700 0.0 1026462
02:00+12ne911690 0.0 1026529
05:00+12ne912670 0.0 1026595
08:00+12ne912650 0.0 1026668
11:00+13ne911610 0.0 1027710
14:00+15ne79530 0.0 1027790
17:00+15ne89550 0.0 1026705
20:00+13ne810620 0.0 1026564
25 october, mon
mon2523:00+12ne78620 0.0 1026467
02:00+12nne78630 0.0 1025425
05:00+11nne66620 0.0 1024388
08:00+10ne67620 0.0 1024387
11:00+12ne67550 0.0 1024529
14:00+14ne45420 0.0 1023696
17:00+15ne56460 0.0 1022584
20:00+12ne56580 0.0 1023373
26 october, tue
tue2623:00+11nne55610 0.0 1023325
02:00+11nne55620 0.0 1023307
05:00+11nne45620 0.0 1022301
08:00+11nne55610 0.0 1022306
11:00+12nne45567 0.0 1023336
14:00+14n224822 0.0 1022244
17:00+15nne224881 0.0 1022123
20:00+14ne786164 0.0 1023373